LAPAN-TUBSAT

Last updated on Sat Jun 14 2025 00:02:28 GMT+0000 (Coordinated Universal Time)

1 29709U 07001A 25164.57351239 .00000644 00000+0 81531-4 0 9993 2 29709 98.1092 151.1710 0011162 310.1230 49.9005 14.85343653996424
UTC large
Height (km)
Speed (km/s)
/
Latitude / Longitude
Inclination (degrees)
Orbital Period (minutes)
Azimuth
Elevation
Range (km)
Doppler Factor

Next 0 passes for location: London (51.5072 / 0.1276)

Sorry there are no passes over London.